[[{"header":{"parameterUnit":"m.s-1","parameterCategory":2,"la1":30.2991,"la2":30.254,"lo1":-89.0895,"lo2":-89.0444,"dy":0.0017,"dx":0.0017,"nx":28,"ny":28,"refTime":"2024-06-02T21:00:00:Z","depth":"0","parameterNumber":2,"parameterNumberName":"U-component_of_CURRENTS"},"data":[0,0,0,0,0,0,0,0,0,0,0,0,0,0,0,0,0,0,0,0,0,0,0,0,0,0,0,0,0,0,0,0,0,0,0,0,0,0,0,0,0,0,0,0,0,0,0,0,0,0,0,0,0,0,0,0,0,0,-0.2225,-0.2225,0,-0.2218,-0.2218,-0.2218,-0.2129,-0.2126,-0.2124,-0.2122,-0.2025,-0.2025,-0.2024,0,0,0,0,0,0,0,0,0,0,0,0,0,-0.2177,-0.2178,-0.2225,-0.2225,-0.2225,-0.2218,-0.2218,-0.2218,-0.2129,-0.2126,-0.2124,-0.2121,-0.2025,-0.2025,-0.2024,0,0,0,0,0,0,0,0,0,0,0,0,0,-0.2185,-0.2178,-0.2225,-0.2181,-0.2177,-0.2218,-0.2218,-0.2218,-0.213,-0.2126,-0.2123,-0.212,-0.2026,-0.2025,-0.2024,-0.2082,0,0,-0.2021,-0.2021,0,0,0,0,0,0,0,0,-0.2185,-0.2187,-0.2187,-0.2184,-0.218,-0.2172,-0.2166,-0.2169,-0.213,-0.2146,-0.2122,-0.2119,-0.2069,-0.2065,-0.207,-0.2078,-0.2074,-0.2021,-0.2021,-0.202,-0.202,0,0,0,0,0,0,0,-0.2185,-0.2187,-0.2221,-0.2188,-0.2183,-0.2167,-0.2165,-0.2166,-0.2123,-0.2144,-0.2138,-0.2141,-0.2066,-0.2071,-0.2067,-0.2072,-0.2021,-0.202,-0.202,-0.2019,-0.2047,-0.2048,0,0,0,0,0,0,-0.2191,-0.2187,-0.2221,-0.2221,-0.2176,-0.2171,-0.2168,-0.2177,-0.2125,-0.2115,-0.2144,-0.2137,-0.2074,-0.2068,-0.2063,-0.2083,-0.202,-0.2019,-0.2019,-0.2046,-0.2047,-0.2049,0,0,0,0,0,0,-0.2191,-0.2195,-0.2221,-0.2204,-0.2206,-0.2175,-0.2186,-0.2178,-0.2165,-0.2125,-0.2112,-0.2135,-0.2071,-0.2064,-0.2047,-0.208,-0.2019,-0.2018,-0.2044,-0.2046,-0.2048,-0.2153,0,0,0,0,0,0,-0.2189,-0.2195,-0.2201,-0.2205,-0.2208,-0.2241,-0.2189,-0.2181,-0.2173,-0.2163,-0.2115,-0.2103,-0.2068,-0.2049,-0.2047,-0.2077,-0.2017,-0.2043,-0.2045,-0.2048,-0.2148,-0.2158,-0.2167,0,0,0,0,0,-0.2188,-0.221,-0.2202,-0.2206,-0.2219,-0.2242,-0.2243,-0.2208,-0.2176,-0.2181,-0.214,-0.2104,-0.2062,-0.205,-0.2046,-0.2078,-0.2042,-0.2045,-0.2047,-0.2144,-0.2156,-0.2167,0,0,0,0,0,0,-0.2191,-0.2204,-0.2194,-0.2218,-0.2228,-0.2227,-0.2231,-0.2215,-0.2192,-0.2172,-0.2124,-0.2112,-0.2112,-0.2082,-0.207,-0.2091,-0.2046,-0.2048,-0.212,-0.2132,-0.2141,-0.2127,-0.2017,0,0,0,0,0,-0.2201,-0.2217,-0.2228,-0.2247,-0.2253,-0.2245,-0.2248,-0.2231,-0.2215,-0.2201,-0.2172,-0.214,-0.2131,-0.2116,-0.2103,-0.212,-0.2068,-0.2136,-0.2146,-0.2154,-0.214,-0.2082,-0.2085,-0.2058,-0.2058,-0.2058,0,0,-0.2207,-0.2218,-0.2225,-0.2249,-0.2251,-0.2276,-0.2238,-0.2249,-0.2262,-0.2198,-0.2199,-0.2177,-0.2143,-0.2156,-0.2153,-0.2128,-0.2142,-0.2158,-0.2165,-0.2145,-0.2085,-0.2087,-0.2089,-0.206,-0.206,-0.206,0,0,-0.2239,-0.2241,-0.2266,-0.2282,-0.2295,-0.2295,-0.23,-0.2304,-0.2291,-0.2308,-0.226,-0.2247,-0.2242,-0.2217,-0.2206,-0.2262,-0.2197,-0.2267,-0.2302,-0.2248,-0.2249,-0.2249,-0.2216,-0.2213,-0.2268,-0.2269,-0.2269,0,-0.2243,-0.2281,-0.2278,-0.2311,-0.2325,-0.2307,-0.2339,-0.2342,-0.2338,-0.2336,-0.2314,-0.2294,-0.2271,-0.2269,-0.2288,-0.2284,-0.2243,-0.2265,-0.2259,-0.2258,-0.2256,-0.2222,-0.2216,-0.2274,-0.2273,-0.2273,-0.2272,0,-0.2296,-0.2326,-0.2345,-0.2377,-0.2394,-0.242,-0.2426,-0.2436,-0.2425,-0.242,-0.2418,-0.2385,-0.236,-0.2371,-0.2349,-0.2339,-0.2313,-0.2282,-0.2229,-0.2265,-0.2227,-0.222,-0.2282,-0.228,-0.2278,-0.2277,0,0,-0.2298,-0.2368,-0.2372,-0.2391,-0.2429,-0.244,-0.248,-0.2501,-0.2498,-0.2502,-0.2498,-0.2498,-0.2459,-0.2442,-0.2411,-0.2372,-0.235,-0.2328,-0.2323,-0.2294,-0.224,-0.2125,-0.2105,-0.2313,-0.2311,-0.231,-0.2229,0,-0.2335,-0.2404,-0.2434,-0.2484,-0.2512,-0.2523,-0.2551,-0.2563,-0.2562,-0.2554,-0.2526,-0.2507,-0.2492,-0.2471,-0.2437,-0.2372,-0.2329,-0.2375,-0.2208,-0.2204,-0.2094,-0.2091,-0.1913,-0.1816,-0.2221,-0.222,-0.2219,0,-0.2369,-0.2409,-0.2474,-0.2519,-0.253,-0.2556,-0.2574,-0.2597,-0.2597,-0.2593,-0.2576,-0.2543,-0.2515,-0.2474,-0.2378,-0.2407,-0.2327,-0.2269,-0.2264,-0.2104,-0.2072,-0.1838,-0.1785,-0.1783,-0.2206,-0.2207,-0.2208,0,-0.2345,-0.2427,-0.2473,-0.2494,-0.2549,-0.2569,-0.2587,-0.2602,-0.2597,-0.2599,-0.2581,-0.2555,-0.2502,-0.2433,-0.2324,-0.2352,-0.2183,-0.2206,-0.2025,-0.2018,-0.1803,-0.1777,-0.1714,-0.2099,-0.2099,-0.21,-0.21,0,-0.2362,-0.2387,-0.2461,-0.2478,-0.25,-0.2547,-0.2554,-0.2573,-0.2578,-0.2523,-0.2574,-0.2498,-0.2478,-0.2383,-0.2316,-0.2132,-0.2171,-0.2014,-0.1974,-0.1838,-0.1818,-0.1752,-0.178,-0.2097,-0.2097,-0.2098,-0.2098,0,-0.2311,-0.2377,-0.2407,-0.2471,-0.2486,-0.2487,-0.2516,-0.25,-0.2535,-0.2464,-0.2458,-0.2443,-0.2301,-0.2253,-0.2112,-0.2077,-0.1883,-0.1855,-0.171,-0.1653,-0.1521,-0.1561,-0.1425,-0.1407,-0.1688,-0.1685,-0.1682,0,-0.2288,-0.2309,-0.2366,-0.2362,-0.2385,-0.2405,-0.2397,-0.2455,-0.2423,-0.2376,-0.2309,-0.2209,-0.2033,-0.1853,-0.174,-0.1598,-0.1647,-0.1435,-0.1451,-0.1467,-0.1484,-0.1544,-0.1547,-0.1231,-0.1225,-0.122,-0.1215,0,-0.2206,-0.2228,-0.2241,-0.2243,-0.2242,-0.2238,-0.2232,-0.22,-0.2205,-0.214,-0.197,-0.1838,-0.1642,-0.1388,-0.1268,-0.1206,-0.1392,-0.1322,-0.1353,-0.112,-0.116,-0.1138,-0.1375,-0.1168,-0.1173,-0.1176,-0.1179,-0.1181,-0.2097,-0.2087,-0.2092,-0.2066,-0.207,-0.2,-0.192,-0.1892,-0.178,-0.1559,-0.1557,-0.1224,-0.1088,-0.0851,-0.0857,-0.0822,-0.0952,-0.0832,-0.0883,-0.095,-0.0904,-0.105,-0.0789,-0.0791,-0.0793,-0.0795,-0.0797,0,-0.191,-0.1914,-0.1903,-0.1852,-0.1766,-0.183,-0.1739,-0.1598,-0.1367,-0.1152,-0.0919,-0.0485,-0.0332,-0.0342,-0.0336,-0.0385,-0.0477,-0.0464,-0.0519,-0.0551,-0.0654,-0.0606,-0.0272,-0.0272,-0.0272,-0.0272,-0.0272,-0.0272,-0.1799,-0.1716,-0.1713,-0.1523,-0.1496,-0.1314,-0.1213,-0.1032,-0.0838,-0.0366,-0.0016,0.0206,0.021,0.0081,-0.0084,-0.0167,-0.0296,-0.0242,-0.0408,-0.0488,-0.0529,-0.0568,-0.053,-0.0186,-0.0186,-0.024,-0.024,-0.024]},{"header":{"parameterUnit":"m.s-1","parameterCategory":2,"la1":30.2991,"la2":30.254,"lo1":-89.0895,"lo2":-89.0444,"dy":0.0017,"dx":0.0017,"nx":28,"ny":28,"refTime":"2024-06-02T21:00:00:Z","depth":"0","parameterNumber":3,"parameterNumberName":"V-component_of_CURRENTS"},"data":[0,0,0,0,0,0,0,0,0,0,0,0,0,0,0,0,0,0,0,0,0,0,0,0,0,0,0,0,0,0,0,0,0,0,0,0,0,0,0,0,0,0,0,0,0,0,0,0,0,0,0,0,0,0,0,0,0,0,-0.0282,-0.0282,0,-0.0261,-0.0261,-0.026,-0.0219,-0.0219,-0.0218,-0.0217,-0.0131,-0.0129,-0.0128,0,0,0,0,0,0,0,0,0,0,0,0,0,-0.0252,-0.0253,-0.0282,-0.0282,-0.0282,-0.0261,-0.0261,-0.026,-0.0219,-0.0219,-0.0218,-0.0217,-0.0131,-0.0129,-0.0127,0,0,0,0,0,0,0,0,0,0,0,0,0,-0.025,-0.0253,-0.0282,-0.026,-0.0258,-0.0261,-0.0261,-0.026,-0.022,-0.0219,-0.0218,-0.0217,-0.0132,-0.013,-0.0127,-0.0132,0,0,-0.0119,-0.0118,0,0,0,0,0,0,0,0,-0.025,-0.0251,-0.0264,-0.0262,-0.0259,-0.0243,-0.0218,-0.0215,-0.022,-0.0233,-0.0217,-0.0216,-0.0164,-0.0159,-0.0156,-0.0128,-0.0124,-0.0119,-0.0118,-0.0117,-0.0116,0,0,0,0,0,0,0,-0.025,-0.0251,-0.0273,-0.0264,-0.0261,-0.0239,-0.0238,-0.0217,-0.0202,-0.0232,-0.0229,-0.0229,-0.0162,-0.0159,-0.0154,-0.0123,-0.0119,-0.0117,-0.0116,-0.0115,-0.0053,-0.0053,0,0,0,0,0,0,-0.0259,-0.0252,-0.0273,-0.0272,-0.0254,-0.0241,-0.0239,-0.0248,-0.0204,-0.0197,-0.023,-0.0227,-0.0163,-0.0157,-0.015,-0.0136,-0.0117,-0.0114,-0.0113,-0.0053,-0.0053,-0.0053,0,0,0,0,0,0,-0.0259,-0.0262,-0.0274,-0.0262,-0.0262,-0.0243,-0.0253,-0.0248,-0.0239,-0.0203,-0.0195,-0.0224,-0.0162,-0.0154,-0.0128,-0.0133,-0.0113,-0.0111,-0.0054,-0.0053,-0.0053,-0.0118,0,0,0,0,0,0,-0.0258,-0.0262,-0.0269,-0.0263,-0.0263,-0.0277,-0.0254,-0.0249,-0.0241,-0.0237,-0.0196,-0.0187,-0.0161,-0.0132,-0.0125,-0.0129,-0.0109,-0.0054,-0.0053,-0.0053,-0.0116,-0.012,-0.0124,0,0,0,0,0,-0.0257,-0.0275,-0.0269,-0.0272,-0.0275,-0.0278,-0.0276,-0.0257,-0.0242,-0.0243,-0.0212,-0.0188,-0.0125,-0.013,-0.0122,-0.0125,-0.0054,-0.0054,-0.0053,-0.0114,-0.0119,-0.0124,0,0,0,0,0,0,-0.0262,-0.0272,-0.0266,-0.0285,-0.0281,-0.0271,-0.0273,-0.0259,-0.0237,-0.0229,-0.0191,-0.0181,-0.0158,-0.0132,-0.0138,-0.0105,-0.0084,-0.0082,-0.0133,-0.0137,-0.0141,-0.016,-0.0107,0,0,0,0,0,-0.0269,-0.0286,-0.0285,-0.0298,-0.03,-0.0286,-0.0283,-0.0271,-0.0254,-0.0243,-0.0214,-0.018,-0.0154,-0.0138,-0.011,-0.0097,-0.0052,-0.009,-0.0094,-0.0098,-0.0107,-0.0043,-0.0042,-0.0052,-0.0052,-0.0052,0,0,-0.0275,-0.0282,-0.0291,-0.03,-0.0296,-0.0307,-0.0281,-0.0283,-0.0285,-0.0237,-0.0227,-0.0193,-0.0152,-0.0136,-0.0123,-0.0113,-0.0068,-0.0097,-0.0101,-0.0108,-0.0043,-0.0042,-0.0041,-0.0052,-0.0052,-0.0052,0,0,-0.0299,-0.0302,-0.0324,-0.0326,-0.0326,-0.032,-0.0322,-0.0311,-0.0299,-0.0286,-0.0251,-0.0223,-0.0183,-0.0159,-0.0141,-0.0148,-0.009,-0.0133,-0.017,-0.0109,-0.0107,-0.0106,-0.0038,-0.003,-0.0136,-0.0136,-0.0136,0,-0.0302,-0.0333,-0.0328,-0.0347,-0.0354,-0.033,-0.035,-0.0338,-0.0317,-0.0314,-0.0287,-0.023,-0.0196,-0.0178,-0.0181,-0.0158,-0.0109,-0.0161,-0.0114,-0.0112,-0.0109,-0.004,-0.003,-0.0139,-0.0139,-0.0138,-0.0138,0,-0.0343,-0.0363,-0.0376,-0.0396,-0.04,-0.0413,-0.0402,-0.0398,-0.0377,-0.0363,-0.0335,-0.0283,-0.0249,-0.0232,-0.021,-0.0181,-0.0147,-0.0127,-0.0108,-0.0113,-0.0039,-0.0027,-0.0144,-0.0142,-0.0141,-0.0141,0,0,-0.0363,-0.04,-0.0403,-0.0426,-0.0428,-0.0443,-0.0447,-0.0452,-0.0458,-0.0417,-0.0409,-0.0363,-0.0329,-0.0305,-0.0263,-0.0215,-0.0152,-0.0171,-0.0166,-0.0112,-0.0004,0.0048,0.0065,-0.0121,-0.012,-0.0119,0.0043,0,-0.0395,-0.0449,-0.0454,-0.0499,-0.0526,-0.0513,-0.0527,-0.0524,-0.0498,-0.0481,-0.0421,-0.0396,-0.0357,-0.0336,-0.0282,-0.018,-0.0127,-0.0197,-0.0,0.0006,0.0045,0.0078,0.0122,0.0273,0.0055,0.0057,0.0058,0,-0.0434,-0.0468,-0.0521,-0.0568,-0.0579,-0.0598,-0.0618,-0.0623,-0.0592,-0.0571,-0.0525,-0.0469,-0.0396,-0.0357,-0.0187,-0.023,-0.0131,-0.005,-0.0041,0.0034,0.0078,0.0242,0.0302,0.0348,0.0076,0.0075,0.0073,0,-0.0463,-0.0517,-0.0566,-0.0579,-0.0621,-0.0643,-0.0659,-0.0652,-0.0668,-0.0618,-0.0607,-0.0508,-0.0438,-0.0311,-0.0135,-0.0159,0.0073,0.0065,0.0204,0.021,0.0299,0.0309,0.0417,0.0177,0.0177,0.0177,0.0176,0,-0.0499,-0.0538,-0.0587,-0.0614,-0.068,-0.0686,-0.0733,-0.0735,-0.0728,-0.0734,-0.0652,-0.0594,-0.0422,-0.0267,-0.0129,0.0095,0.0089,0.0208,0.0257,0.0279,0.0286,0.037,0.035,0.0183,0.0181,0.018,0.0179,0,-0.0519,-0.055,-0.0614,-0.0672,-0.0696,-0.0739,-0.0798,-0.0822,-0.0811,-0.0803,-0.0791,-0.0642,-0.041,-0.0223,0.0026,0.0117,0.0357,0.0385,0.0404,0.0451,0.0583,0.0557,0.0688,0.075,0.0547,0.055,0.0552,0,-0.0531,-0.0565,-0.0655,-0.0697,-0.0725,-0.0788,-0.083,-0.086,-0.0875,-0.0812,-0.0794,-0.0585,-0.0371,0.0019,0.0232,0.0498,0.0508,0.0633,0.0577,0.0608,0.0616,0.0572,0.061,0.0682,0.0685,0.0687,0.0689,0,-0.0544,-0.0577,-0.0631,-0.0714,-0.0773,-0.0844,-0.0893,-0.0926,-0.0931,-0.0891,-0.0728,-0.0542,-0.0158,0.0214,0.0519,0.0644,0.065,0.0686,0.0724,0.0733,0.0688,0.0765,0.0553,0.0709,0.0707,0.0706,0.0705,0.0704,-0.0539,-0.0583,-0.0644,-0.0716,-0.0789,-0.0843,-0.0854,-0.0873,-0.0856,-0.0725,-0.0619,-0.0254,0.0195,0.0677,0.0745,0.0918,0.0853,0.0954,0.0926,0.0883,0.0917,0.0745,0.0943,0.0942,0.0942,0.0941,0.0941,0,-0.0506,-0.0557,-0.0632,-0.0704,-0.0748,-0.0799,-0.0847,-0.0797,-0.0701,-0.0554,-0.0342,0.0275,0.0647,0.0935,0.1179,0.1177,0.1132,0.1166,0.111,0.1144,0.1024,0.1003,0.1216,0.1216,0.1216,0.1216,0.1216,0.1215,-0.0489,-0.0532,-0.0572,-0.0617,-0.0663,-0.0664,-0.066,-0.0572,-0.0447,-0.0067,0.0303,0.0595,0.1094,0.1237,0.1354,0.1327,0.1336,0.1288,0.131,0.1204,0.1181,0.1159,0.1138,0.1375,0.1375,0.1456,0.1456,0.1457]}],[{"header":{"parameterUnit":"m.s-1","parameterCategory":2,"la1":30.2991,"la2":30.254,"lo1":-89.0895,"lo2":-89.0444,"dy":0.0017,"dx":0.0017,"nx":28,"ny":28,"refTime":"2024-06-02T21:00:00:Z","depth":"2","parameterNumber":2,"parameterNumberName":"U-component_of_CURRENTS"},"data":[0,0,0,0,0,0,0,0,0,0,0,0,0,0,0,0,0,0,0,0,0,0,0,0,0,0,0,0,0,0,0,0,0,0,0,0,0,0,0,0,0,0,0,0,0,0,0,0,0,0,0,0,0,0,0,0,0,0,-0.151,-0.1509,0,-0.1478,-0.1478,-0.1478,-0.1535,-0.1537,-0.1538,-0.154,-0.1574,-0.1574,-0.1573,0,0,0,0,0,0,0,0,0,0,0,0,0,-0.1494,-0.1495,-0.151,-0.1509,-0.1508,-0.1478,-0.1478,-0.1478,-0.1535,-0.1537,-0.1539,-0.1541,-0.1575,-0.1574,-0.1573,0,0,0,0,0,0,0,0,0,0,0,0,0,-0.1489,-0.1495,-0.151,-0.1531,-0.1532,-0.1478,-0.1478,-0.1478,-0.1535,-0.1537,-0.1539,-0.1542,-0.1575,-0.1574,-0.1573,-0.152,0,0,-0.157,-0.157,0,0,0,0,0,0,0,0,-0.1489,-0.149,-0.1528,-0.1529,-0.153,-0.151,-0.1485,-0.1494,-0.1534,-0.1537,-0.154,-0.1543,-0.1555,-0.1556,-0.1548,-0.1521,-0.1523,-0.157,-0.157,-0.1569,-0.1569,0,0,0,0,0,0,0,-0.149,-0.1491,-0.1501,-0.1527,-0.1528,-0.1498,-0.1502,-0.1486,-0.1537,-0.1537,-0.154,-0.153,-0.1557,-0.1549,-0.155,-0.1523,-0.157,-0.157,-0.1569,-0.1569,-0.1536,-0.1536,0,0,0,0,0,0,-0.1491,-0.1492,-0.1502,-0.1499,-0.1511,-0.1497,-0.1501,-0.1517,-0.1536,-0.1539,-0.1528,-0.1533,-0.1549,-0.1551,-0.1551,-0.154,-0.1569,-0.1569,-0.1568,-0.1537,-0.1536,-0.1536,0,0,0,0,0,0,-0.1491,-0.1493,-0.1503,-0.149,-0.1489,-0.1495,-0.1512,-0.1515,-0.1551,-0.1528,-0.1534,-0.1566,-0.1551,-0.1553,-0.1549,-0.1541,-0.1568,-0.1567,-0.1537,-0.1537,-0.1536,-0.1486,0,0,0,0,0,0,-0.1491,-0.1494,-0.1497,-0.1491,-0.149,-0.1524,-0.151,-0.1513,-0.1536,-0.1544,-0.1561,-0.1564,-0.1553,-0.155,-0.1548,-0.154,-0.1567,-0.1538,-0.1537,-0.1536,-0.1488,-0.1483,-0.148,0,0,0,0,0,-0.1491,-0.1486,-0.1498,-0.1498,-0.1499,-0.1525,-0.1524,-0.1535,-0.1536,-0.1573,-0.1548,-0.1566,-0.1546,-0.1548,-0.1546,-0.1538,-0.1538,-0.1537,-0.1536,-0.1489,-0.1484,-0.148,0,0,0,0,0,0,-0.1471,-0.149,-0.1504,-0.1504,-0.1539,-0.1535,-0.1525,-0.1553,-0.1561,-0.155,-0.1549,-0.155,-0.154,-0.155,-0.1553,-0.1529,-0.155,-0.1548,-0.1515,-0.151,-0.1506,-0.1539,-0.1566,0,0,0,0,0,-0.1468,-0.1499,-0.1507,-0.1527,-0.1515,-0.153,-0.1534,-0.1558,-0.1558,-0.1567,-0.1572,-0.1557,-0.1525,-0.1531,-0.1513,-0.1499,-0.1529,-0.1499,-0.1495,-0.1491,-0.1518,-0.1543,-0.1544,-0.1533,-0.1533,-0.1533,0,0,-0.1463,-0.1485,-0.1496,-0.1528,-0.1525,-0.1507,-0.1541,-0.1557,-0.1559,-0.1562,-0.1552,-0.1542,-0.1517,-0.1489,-0.1489,-0.1505,-0.1505,-0.149,-0.1487,-0.1517,-0.1543,-0.1544,-0.1545,-0.1533,-0.1533,-0.1533,0,0,-0.1464,-0.1482,-0.1488,-0.1495,-0.151,-0.1515,-0.1534,-0.1546,-0.1564,-0.1551,-0.1538,-0.1538,-0.1502,-0.1491,-0.147,-0.1444,-0.1475,-0.1439,-0.1452,-0.1474,-0.1476,-0.1478,-0.1494,-0.1498,-0.1446,-0.1446,-0.1446,0,-0.1469,-0.1456,-0.1498,-0.1481,-0.1466,-0.152,-0.1496,-0.1509,-0.1537,-0.156,-0.1549,-0.1523,-0.1497,-0.1478,-0.1448,-0.1436,-0.1455,-0.1464,-0.147,-0.1472,-0.1475,-0.1492,-0.1497,-0.1443,-0.1444,-0.1444,-0.1444,0,-0.1422,-0.1423,-0.1413,-0.1416,-0.1428,-0.142,-0.1429,-0.1474,-0.1487,-0.151,-0.1526,-0.1493,-0.1502,-0.1474,-0.1431,-0.1444,-0.1451,-0.1451,-0.1481,-0.1473,-0.1491,-0.1497,-0.144,-0.1441,-0.1441,-0.1442,0,0,-0.1444,-0.1392,-0.14,-0.1397,-0.138,-0.1414,-0.1402,-0.1442,-0.1483,-0.1497,-0.1567,-0.1467,-0.1509,-0.1492,-0.1475,-0.1481,-0.1473,-0.1468,-0.1471,-0.1485,-0.1523,-0.1362,-0.1353,-0.1473,-0.1474,-0.1475,-0.1519,0,-0.1405,-0.1347,-0.1346,-0.1339,-0.1292,-0.1343,-0.1357,-0.1417,-0.1448,-0.154,-0.1555,-0.1598,-0.1496,-0.153,-0.1501,-0.1509,-0.1492,-0.1462,-0.1531,-0.1534,-0.1391,-0.1355,-0.1219,-0.1232,-0.1525,-0.1526,-0.1527,0,-0.1346,-0.1324,-0.1257,-0.1308,-0.1302,-0.132,-0.1398,-0.1433,-0.1544,-0.1581,-0.1629,-0.1681,-0.1707,-0.1643,-0.1609,-0.1597,-0.1544,-0.1532,-0.1534,-0.1415,-0.1383,-0.1294,-0.1233,-0.1538,-0.1537,-0.1536,-0.1535,0,-0.1318,-0.1297,-0.1254,-0.124,-0.127,-0.131,-0.1367,-0.1445,-0.1498,-0.1657,-0.172,-0.177,-0.1823,-0.1781,-0.1681,-0.1677,-0.1657,-0.1662,-0.1466,-0.1456,-0.1372,-0.1349,-0.1635,-0.1635,-0.1635,-0.1635,-0.1635,0,-0.1251,-0.1251,-0.1244,-0.1225,-0.1269,-0.1308,-0.1378,-0.1465,-0.1574,-0.1628,-0.175,-0.1774,-0.1857,-0.1844,-0.1752,-0.1592,-0.1693,-0.1467,-0.1451,-0.1343,-0.1319,-0.1619,-0.1617,-0.1637,-0.1636,-0.1636,-0.1636,0,-0.121,-0.1183,-0.118,-0.1215,-0.1242,-0.1288,-0.1385,-0.1423,-0.1542,-0.1627,-0.1703,-0.1824,-0.179,-0.18,-0.1771,-0.1656,-0.1564,-0.1473,-0.133,-0.1292,-0.1351,-0.1345,-0.1331,-0.1326,-0.1321,-0.1318,-0.1314,0,-0.1173,-0.1134,-0.1179,-0.1192,-0.1206,-0.1261,-0.1284,-0.1399,-0.1418,-0.1569,-0.16,-0.169,-0.1613,-0.1536,-0.1443,-0.1324,-0.1394,-0.1142,-0.1088,-0.1331,-0.1318,-0.132,-0.1321,-0.0972,-0.0966,-0.0962,-0.0958,0,-0.1121,-0.1136,-0.114,-0.1131,-0.1154,-0.1178,-0.1218,-0.1231,-0.134,-0.1372,-0.1366,-0.1355,-0.1311,-0.1143,-0.1061,-0.0971,-0.1167,-0.1036,-0.1357,-0.1035,-0.0985,-0.0974,-0.0989,-0.0916,-0.092,-0.0923,-0.0925,-0.0927,-0.112,-0.1108,-0.1095,-0.1086,-0.1106,-0.108,-0.1042,-0.105,-0.1045,-0.1051,-0.1079,-0.0976,-0.1013,-0.0773,-0.0699,-0.0699,-0.0779,-0.0762,-0.0781,-0.0804,-0.0719,-0.0659,-0.0515,-0.0517,-0.0519,-0.052,-0.0521,0,-0.1111,-0.1067,-0.1046,-0.1023,-0.097,-0.101,-0.098,-0.0897,-0.0797,-0.076,-0.0685,-0.0564,-0.0428,-0.0476,-0.0361,-0.0335,-0.0404,-0.0358,-0.0445,-0.0482,-0.0517,-0.0424,-0.0139,-0.0139,-0.0138,-0.0138,0,0,-0.1108,-0.1052,-0.1001,-0.0876,-0.0852,-0.074,-0.0685,-0.0587,-0.0518,-0.0371,-0.0285,-0.0292,-0.0339,-0.0206,-0.0199,-0.0127,-0.0311,-0.0124,-0.0416,-0.0545,-0.058,-0.0718,-0.0608,0,0,0,0,0]},{"header":{"parameterUnit":"m.s-1","parameterCategory":2,"la1":30.2991,"la2":30.254,"lo1":-89.0895,"lo2":-89.0444,"dy":0.0017,"dx":0.0017,"nx":28,"ny":28,"refTime":"2024-06-02T21:00:00:Z","depth":"2","parameterNumber":3,"parameterNumberName":"V-component_of_CURRENTS"},"data":[0,0,0,0,0,0,0,0,0,0,0,0,0,0,0,0,0,0,0,0,0,0,0,0,0,0,0,0,0,0,0,0,0,0,0,0,0,0,0,0,0,0,0,0,0,0,0,0,0,0,0,0,0,0,0,0,0,0,-0.0293,-0.0293,0,-0.0209,-0.0208,-0.0207,-0.0153,-0.0153,-0.0153,-0.0153,-0.0021,-0.0018,-0.0015,0,0,0,0,0,0,0,0,0,0,0,0,0,-0.033,-0.033,-0.0293,-0.0293,-0.0292,-0.0209,-0.0208,-0.0206,-0.0153,-0.0153,-0.0153,-0.0153,-0.0023,-0.0019,-0.0014,0,0,0,0,0,0,0,0,0,0,0,0,0,-0.0284,-0.033,-0.0294,-0.0258,-0.0254,-0.021,-0.0208,-0.0206,-0.0153,-0.0153,-0.0153,-0.0153,-0.0024,-0.0019,-0.0014,0.0018,0,0,0.0002,0.0004,0,0,0,0,0,0,0,0,-0.0286,-0.0282,-0.0264,-0.026,-0.0256,-0.0194,-0.0173,-0.013,-0.0153,-0.0187,-0.0153,-0.0153,-0.0077,-0.0068,-0.0048,0.0024,0.003,0.0003,0.0006,0.0008,0.0009,0,0,0,0,0,0,0,-0.029,-0.0285,-0.0257,-0.0263,-0.0258,-0.0219,-0.0213,-0.0164,-0.013,-0.0184,-0.0181,-0.0177,-0.0074,-0.0053,-0.0044,0.0032,0.0002,0.0007,0.001,0.0012,0.0146,0.0146,0,0,0,0,0,0,-0.0311,-0.0288,-0.0259,-0.0254,-0.0275,-0.0219,-0.0212,-0.0211,-0.0131,-0.0121,-0.0177,-0.0175,-0.0062,-0.005,-0.0039,0.0001,0.0008,0.0013,0.0016,0.0145,0.0146,0.0146,0,0,0,0,0,0,-0.0312,-0.031,-0.0263,-0.0272,-0.0264,-0.022,-0.0218,-0.021,-0.0185,-0.0127,-0.0115,-0.0162,-0.0061,-0.0047,0.001,0.0006,0.0015,0.002,0.0145,0.0146,0.0146,0.0082,0,0,0,0,0,0,-0.0314,-0.031,-0.0316,-0.0274,-0.0264,-0.0223,-0.0219,-0.0208,-0.0184,-0.018,-0.011,-0.0098,-0.006,0.0002,0.0015,0.0013,0.0024,0.0144,0.0145,0.0146,0.0084,0.008,0.0078,0,0,0,0,0,-0.0315,-0.0318,-0.0317,-0.0313,-0.0274,-0.0222,-0.0212,-0.0178,-0.0184,-0.0159,-0.0123,-0.01,0.0016,0.0007,0.0022,0.0022,0.0144,0.0145,0.0146,0.0085,0.0081,0.0078,0,0,0,0,0,0,-0.0327,-0.0312,-0.0309,-0.0306,-0.0264,-0.0214,-0.0203,-0.018,-0.0133,-0.0137,-0.0087,-0.0071,-0.0025,0.0012,0.0001,0.0064,0.0081,0.0085,0.0029,0.0026,0.0023,0.0012,0.0028,0,0,0,0,0,-0.0338,-0.0338,-0.0305,-0.0297,-0.029,-0.0249,-0.0228,-0.0201,-0.0158,-0.0138,-0.009,-0.0047,-0.0009,0.0019,0.0066,0.0106,0.0137,0.0115,0.0112,0.0109,0.0111,0.0145,0.0144,0.015,0.015,0.015,0,0,-0.0344,-0.0332,-0.0334,-0.03,-0.0279,-0.0263,-0.0235,-0.0203,-0.0184,-0.0131,-0.0092,-0.005,0.0,0.0041,0.0064,0.0072,0.0125,0.011,0.0107,0.0111,0.0146,0.0145,0.0144,0.015,0.015,0.015,0,0,-0.0353,-0.0347,-0.0356,-0.0327,-0.0294,-0.0267,-0.0261,-0.0209,-0.0183,-0.0138,-0.0107,-0.0067,0.0003,0.0035,0.0057,0.0069,0.0107,0.0084,0.006,0.0093,0.0092,0.0092,0.013,0.0134,0.0082,0.0082,0.0082,0,-0.0361,-0.0366,-0.0343,-0.0337,-0.0323,-0.0277,-0.0272,-0.0237,-0.0166,-0.0143,-0.0133,-0.0044,-0.0005,0.0033,0.0032,0.006,0.0089,0.0064,0.0086,0.0087,0.0088,0.0128,0.0133,0.0079,0.0079,0.0079,0.008,0,-0.0379,-0.0378,-0.0377,-0.0368,-0.0342,-0.0321,-0.0284,-0.025,-0.0225,-0.0183,-0.0129,-0.0075,-0.002,-0.0009,0.0012,0.0041,0.0063,0.0075,0.0088,0.0083,0.0126,0.0132,0.0074,0.0075,0.0076,0.0077,0,0,-0.0401,-0.0397,-0.0392,-0.0401,-0.0356,-0.0339,-0.0314,-0.0269,-0.0253,-0.019,-0.0156,-0.0107,-0.0068,-0.0041,-0.0003,0.0019,0.0043,0.0045,0.0048,0.007,0.0122,0.015,0.016,0.0056,0.0057,0.0057,0.0149,0,-0.0419,-0.0428,-0.0413,-0.0415,-0.0422,-0.0377,-0.0357,-0.0308,-0.0257,-0.0204,-0.0151,-0.0103,-0.0083,-0.0059,-0.0032,0.0031,0.0057,0.0018,0.0136,0.014,0.0154,0.0167,0.0139,0.0219,0.0156,0.0157,0.0157,0,-0.0439,-0.0444,-0.0456,-0.0452,-0.0453,-0.0443,-0.0403,-0.0377,-0.0293,-0.0254,-0.0192,-0.0128,-0.0072,-0.0062,0.0033,0.0008,0.0059,0.01,0.0105,0.0158,0.0179,0.0216,0.0233,0.0168,0.0168,0.0167,0.0166,0,-0.0468,-0.047,-0.0485,-0.048,-0.0468,-0.0466,-0.0455,-0.0388,-0.0371,-0.0277,-0.0241,-0.0152,-0.0108,-0.0036,0.0072,0.0048,0.0186,0.0164,0.0238,0.0241,0.0256,0.0259,0.0225,0.0225,0.0225,0.0225,0.0224,0,-0.0486,-0.0498,-0.0505,-0.0515,-0.0537,-0.051,-0.0508,-0.0474,-0.0418,-0.0391,-0.0273,-0.0211,-0.0102,0.0007,0.0083,0.0201,0.0201,0.0243,0.0268,0.0234,0.0234,0.022,0.0218,0.0228,0.0227,0.0227,0.0226,0,-0.0509,-0.0508,-0.0538,-0.0547,-0.0555,-0.0571,-0.0575,-0.0563,-0.05,-0.0457,-0.043,-0.0266,-0.0108,0.0031,0.0172,0.0213,0.0323,0.0366,0.0328,0.0347,0.0345,0.0339,0.0426,0.0428,0.0429,0.043,0.0431,0,-0.0522,-0.0537,-0.0576,-0.0601,-0.061,-0.0632,-0.064,-0.0611,-0.0597,-0.048,-0.0455,-0.0274,-0.0116,0.0136,0.0264,0.0423,0.0415,0.0449,0.0383,0.0351,0.0367,0.0358,0.0351,0.038,0.0381,0.0381,0.0381,0,-0.0552,-0.0563,-0.059,-0.0645,-0.0672,-0.0701,-0.0713,-0.0726,-0.0673,-0.0606,-0.0466,-0.0322,-0.0045,0.016,0.0372,0.0442,0.0417,0.046,0.0458,0.033,0.0314,0.0327,0.032,0.0385,0.0385,0.0385,0.0384,0.0384,-0.0573,-0.0603,-0.064,-0.0686,-0.072,-0.0752,-0.0765,-0.0755,-0.0724,-0.0602,-0.048,-0.0214,-0.0046,0.0307,0.0404,0.049,0.0487,0.0466,0.0462,0.0458,0.0433,0.042,0.0507,0.0507,0.0507,0.0508,0.0508,0,-0.0605,-0.0633,-0.0681,-0.0729,-0.0758,-0.077,-0.0793,-0.0773,-0.072,-0.0553,-0.0392,-0.0142,0.01,0.0303,0.0439,0.0482,0.0446,0.0475,0.0413,0.041,0.0407,0.0376,0.0437,0.0437,0.0437,0.0437,0,0,-0.0626,-0.0676,-0.0698,-0.0745,-0.077,-0.0786,-0.0793,-0.0747,-0.0632,-0.0456,-0.0244,-0.001,0.0206,0.0272,0.0334,0.0402,0.0379,0.0392,0.0445,0.036,0.0355,0.0404,0.0353,0,0,0,0,0]}],[{"header":{"parameterUnit":"m.s-1","parameterCategory":2,"la1":30.2991,"la2":30.254,"lo1":-89.0895,"lo2":-89.0444,"dy":0.0017,"dx":0.0017,"nx":28,"ny":28,"refTime":"2024-06-02T21:00:00:Z","depth":"4","parameterNumber":2,"parameterNumberName":"U-component_of_CURRENTS"},"data":[0,0,0,0,0,0,0,0,0,0,0,0,0,0,0,0,0,0,0,0,0,0,0,0,0,0,0,0,0,0,0,0,0,0,0,0,0,0,0,0,0,0,0,0,0,0,0,0,0,0,0,0,0,0,0,0,0,0,-0.0545,-0.0546,0,-0.0597,-0.0598,-0.0598,-0.0608,-0.0608,-0.0608,-0.0608,-0.0642,-0.0643,-0.0644,0,0,0,0,0,0,0,0,0,0,0,0,0,-0.0527,-0.0527,-0.0545,-0.0546,-0.0547,-0.0597,-0.0598,-0.0598,-0.0609,-0.0608,-0.0608,-0.0608,-0.0642,-0.0643,-0.0645,0,0,0,0,0,0,0,0,0,0,0,0,0,-0.0551,-0.0527,-0.0545,-0.056,-0.0562,-0.0597,-0.0598,-0.0598,-0.0609,-0.0608,-0.0608,-0.0608,-0.0641,-0.0643,-0.0645,-0.0661,0,0,-0.065,-0.0651,0,0,0,0,0,0,0,0,-0.0549,-0.0551,-0.0557,-0.0559,-0.0561,-0.0598,-0.0604,-0.0619,-0.0609,-0.0589,-0.0608,-0.0607,-0.0627,-0.063,-0.0638,-0.0663,-0.0664,-0.065,-0.0651,-0.0652,-0.0652,0,0,0,0,0,0,0,-0.0547,-0.0549,-0.0564,-0.0558,-0.056,-0.0589,-0.0591,-0.0607,-0.0607,-0.059,-0.0592,-0.0601,-0.0628,-0.0636,-0.0639,-0.0665,-0.065,-0.0651,-0.0652,-0.0653,-0.0715,-0.0716,0,0,0,0,0,0,-0.0542,-0.0547,-0.0562,-0.0565,-0.0557,-0.0589,-0.0591,-0.0585,-0.0607,-0.0611,-0.0601,-0.0601,-0.0634,-0.0637,-0.064,-0.0674,-0.0652,-0.0653,-0.0654,-0.0714,-0.0715,-0.0716,0,0,0,0,0,0,-0.0541,-0.0542,-0.056,-0.056,-0.0565,-0.0589,-0.0582,-0.0586,-0.0605,-0.0616,-0.0619,-0.0617,-0.0634,-0.0638,-0.0664,-0.0675,-0.0654,-0.0656,-0.0714,-0.0715,-0.0715,-0.0734,0,0,0,0,0,0,-0.054,-0.0541,-0.0546,-0.0559,-0.0565,-0.0583,-0.0583,-0.0587,-0.0611,-0.0612,-0.0631,-0.0633,-0.0634,-0.0661,-0.0666,-0.0677,-0.0657,-0.0713,-0.0714,-0.0715,-0.0733,-0.0735,-0.0738,0,0,0,0,0,-0.0539,-0.0546,-0.0545,-0.0548,-0.0566,-0.0584,-0.0589,-0.0605,-0.0612,-0.062,-0.0637,-0.0633,-0.0672,-0.0664,-0.0668,-0.068,-0.0712,-0.0714,-0.0715,-0.0731,-0.0735,-0.0738,0,0,0,0,0,0,-0.0541,-0.0548,-0.0548,-0.0556,-0.057,-0.0586,-0.0604,-0.0614,-0.0634,-0.0642,-0.0647,-0.065,-0.0673,-0.0678,-0.0669,-0.0701,-0.069,-0.0692,-0.07,-0.0704,-0.0706,-0.0712,-0.0658,0,0,0,0,0,-0.0543,-0.0547,-0.0558,-0.0564,-0.0573,-0.0591,-0.0606,-0.0617,-0.0634,-0.0643,-0.0655,-0.067,-0.0682,-0.0694,-0.0704,-0.073,-0.0721,-0.0739,-0.0742,-0.0744,-0.0752,-0.0747,-0.075,-0.0721,-0.0721,-0.072,0,0,-0.0545,-0.0551,-0.0553,-0.0566,-0.0579,-0.0599,-0.0599,-0.0625,-0.0645,-0.0645,-0.0677,-0.0681,-0.069,-0.0712,-0.0723,-0.0719,-0.0746,-0.0746,-0.0747,-0.0754,-0.0749,-0.0752,-0.0754,-0.0722,-0.0721,-0.0721,0,0,-0.055,-0.0556,-0.0562,-0.0578,-0.0604,-0.0617,-0.0627,-0.0649,-0.0663,-0.0692,-0.0694,-0.0706,-0.0731,-0.0737,-0.0743,-0.077,-0.0757,-0.0774,-0.0798,-0.0793,-0.0796,-0.0797,-0.0781,-0.0782,-0.0779,-0.0779,-0.0779,0,-0.0551,-0.0562,-0.057,-0.0587,-0.061,-0.0626,-0.0649,-0.0667,-0.0695,-0.071,-0.0704,-0.0735,-0.0741,-0.0766,-0.0774,-0.0776,-0.0769,-0.0783,-0.0796,-0.0798,-0.08,-0.0783,-0.0783,-0.078,-0.078,-0.078,-0.078,0,-0.0561,-0.0582,-0.0591,-0.0615,-0.0639,-0.0664,-0.0689,-0.0714,-0.0732,-0.0743,-0.0768,-0.0771,-0.0787,-0.0789,-0.0794,-0.0813,-0.0801,-0.0795,-0.0786,-0.0804,-0.0785,-0.0784,-0.0781,-0.0781,-0.0781,-0.078,0,0,-0.0526,-0.0585,-0.0588,-0.0619,-0.0661,-0.0683,-0.0721,-0.0756,-0.0786,-0.0795,-0.082,-0.0834,-0.0829,-0.0836,-0.0835,-0.0837,-0.0838,-0.0828,-0.0828,-0.0809,-0.0822,-0.0769,-0.0764,-0.0835,-0.0835,-0.0836,-0.08,0,-0.053,-0.0573,-0.0603,-0.0657,-0.0688,-0.0726,-0.0763,-0.0799,-0.0821,-0.0847,-0.0844,-0.0863,-0.0848,-0.0858,-0.0855,-0.084,-0.084,-0.0848,-0.0812,-0.081,-0.0758,-0.0763,-0.0837,-0.08,-0.08,-0.08,-0.08,0,-0.0525,-0.0563,-0.0613,-0.0696,-0.0712,-0.0747,-0.0816,-0.085,-0.0886,-0.0901,-0.0909,-0.0905,-0.0905,-0.0892,-0.0866,-0.0871,-0.0856,-0.0841,-0.0839,-0.0785,-0.0757,-0.0782,-0.0799,-0.0799,-0.0799,-0.08,-0.08,0,-0.05,-0.0572,-0.0617,-0.0643,-0.0729,-0.0766,-0.0811,-0.0864,-0.0896,-0.0931,-0.0949,-0.094,-0.0938,-0.0911,-0.0871,-0.0874,-0.0836,-0.0831,-0.0769,-0.0764,-0.0814,-0.0813,-0.0827,-0.0827,-0.0827,-0.0827,-0.0827,0,-0.0491,-0.0532,-0.0614,-0.064,-0.0705,-0.0768,-0.0829,-0.0872,-0.0924,-0.0947,-0.097,-0.0976,-0.0947,-0.0917,-0.0879,-0.0808,-0.0835,-0.0773,-0.0754,-0.0821,-0.0821,-0.0813,-0.0812,-0.0826,-0.0826,-0.0826,-0.0826,0,-0.0458,-0.0508,-0.0572,-0.0666,-0.0694,-0.0742,-0.0835,-0.0874,-0.0932,-0.096,-0.097,-0.0998,-0.0955,-0.0912,-0.0865,-0.0815,-0.0758,-0.0735,-0.0801,-0.0787,-0.0689,-0.0689,-0.0657,-0.0655,-0.0653,-0.0652,-0.0651,0,-0.045,-0.0476,-0.0571,-0.0606,-0.0651,-0.0727,-0.0772,-0.0858,-0.089,-0.0958,-0.0959,-0.096,-0.0954,-0.0832,-0.0808,-0.0718,-0.0712,-0.0682,-0.0698,-0.0688,-0.0673,-0.0676,-0.0679,-0.0648,-0.0647,-0.0647,-0.0646,0,-0.0436,-0.0465,-0.051,-0.0567,-0.0625,-0.0688,-0.0755,-0.0775,-0.0856,-0.0919,-0.0913,-0.0888,-0.0849,-0.0791,-0.0729,-0.0671,-0.0694,-0.0663,-0.0667,-0.0682,-0.0676,-0.0663,-0.0668,-0.064,-0.0641,-0.0642,-0.0642,0,-0.042,-0.0436,-0.0476,-0.0526,-0.0587,-0.0619,-0.0675,-0.0713,-0.0756,-0.0831,-0.0824,-0.0822,-0.0842,-0.0768,-0.0707,-0.0642,-0.0633,-0.0606,-0.0613,-0.0619,-0.0621,-0.0608,-0.0535,0,0,0,0,0,-0.04,-0.0393,-0.0431,-0.0475,-0.0527,-0.0556,-0.0643,-0.0699,-0.0775,-0.0746,-0.0783,-0.0741,-0.0682,-0.0693,-0.061,-0.0676,-0.0624,-0.0579,-0.0595,-0.0606,-0.0613,-0.0616,0,0,0,0,0,0,-0.0385,-0.0398,-0.0404,-0.0409,-0.0421,-0.0471,-0.0523,-0.0585,-0.0582,-0.0656,-0.0627,-0.068,-0.0628,-0.069,-0.0583,-0.058,-0.0573,-0.0582,-0.058,-0.0601,-0.0608,-0.0614,-0.062,0,0,0,0,0]},{"header":{"parameterUnit":"m.s-1","parameterCategory":2,"la1":30.2991,"la2":30.254,"lo1":-89.0895,"lo2":-89.0444,"dy":0.0017,"dx":0.0017,"nx":28,"ny":28,"refTime":"2024-06-02T21:00:00:Z","depth":"4","parameterNumber":3,"parameterNumberName":"V-component_of_CURRENTS"},"data":[0,0,0,0,0,0,0,0,0,0,0,0,0,0,0,0,0,0,0,0,0,0,0,0,0,0,0,0,0,0,0,0,0,0,0,0,0,0,0,0,0,0,0,0,0,0,0,0,0,0,0,0,0,0,0,0,0,0,-0.0241,-0.0241,0,-0.0208,-0.0207,-0.0207,-0.0183,-0.0183,-0.0183,-0.0183,-0.0102,-0.01,-0.0099,0,0,0,0,0,0,0,0,0,0,0,0,0,-0.0229,-0.023,-0.0241,-0.0241,-0.024,-0.0208,-0.0207,-0.0207,-0.0184,-0.0183,-0.0183,-0.0183,-0.0103,-0.0101,-0.0098,0,0,0,0,0,0,0,0,0,0,0,0,0,-0.0219,-0.023,-0.0241,-0.0224,-0.0222,-0.0208,-0.0207,-0.0207,-0.0184,-0.0183,-0.0183,-0.0183,-0.0104,-0.0101,-0.0098,-0.0086,0,0,-0.0089,-0.0088,0,0,0,0,0,0,0,0,-0.022,-0.022,-0.0227,-0.0225,-0.0223,-0.0199,-0.0173,-0.0164,-0.0184,-0.0199,-0.0183,-0.0183,-0.013,-0.0125,-0.0121,-0.0082,-0.0079,-0.0089,-0.0087,-0.0086,-0.0085,0,0,0,0,0,0,0,-0.0221,-0.0221,-0.0228,-0.0227,-0.0224,-0.0199,-0.0198,-0.0171,-0.0166,-0.0197,-0.0195,-0.0191,-0.0129,-0.0124,-0.0119,-0.0078,-0.0089,-0.0086,-0.0084,-0.0083,-0.0021,-0.0021,0,0,0,0,0,0,-0.0228,-0.0222,-0.0229,-0.0227,-0.0221,-0.02,-0.0199,-0.0207,-0.0167,-0.0161,-0.0192,-0.019,-0.0129,-0.0122,-0.0116,-0.0079,-0.0086,-0.0083,-0.0081,-0.0021,-0.0021,-0.0021,0,0,0,0,0,0,-0.0228,-0.0229,-0.023,-0.0222,-0.0221,-0.0201,-0.0211,-0.0207,-0.0203,-0.0163,-0.0156,-0.0192,-0.0128,-0.012,-0.0086,-0.0077,-0.0082,-0.0079,-0.0021,-0.0021,-0.0021,-0.0019,0,0,0,0,0,0,-0.0228,-0.023,-0.0239,-0.0224,-0.0222,-0.0229,-0.0211,-0.0207,-0.0201,-0.0199,-0.0161,-0.0153,-0.0127,-0.009,-0.0083,-0.0073,-0.0077,-0.0021,-0.0021,-0.0021,-0.0019,-0.0019,-0.0019,0,0,0,0,0,-0.0228,-0.0242,-0.024,-0.024,-0.0235,-0.0229,-0.0226,-0.021,-0.0201,-0.0205,-0.017,-0.0155,-0.0087,-0.0088,-0.0079,-0.0068,-0.0021,-0.0021,-0.0021,-0.0019,-0.0019,-0.0019,0,0,0,0,0,0,-0.0243,-0.0241,-0.0238,-0.0252,-0.0244,-0.0225,-0.0225,-0.0215,-0.0192,-0.0185,-0.0148,-0.0138,-0.0109,-0.0092,-0.0094,-0.0054,-0.0054,-0.0053,-0.0056,-0.0056,-0.0056,-0.0058,-0.0074,0,0,0,0,0,-0.0251,-0.0263,-0.0253,-0.0265,-0.0262,-0.0245,-0.024,-0.023,-0.0207,-0.0197,-0.0168,-0.0136,-0.0105,-0.0083,-0.006,-0.0031,-0.0014,-0.0022,-0.0022,-0.0022,-0.002,0.0019,0.0023,-0.0022,-0.0022,-0.0022,0,0,-0.026,-0.0261,-0.0267,-0.0269,-0.0261,-0.0251,-0.0242,-0.0238,-0.0222,-0.019,-0.0161,-0.0138,-0.01,-0.0068,-0.0053,-0.0049,-0.0004,-0.0023,-0.0023,-0.002,0.0019,0.0024,0.0028,-0.0022,-0.0022,-0.0022,0,0,-0.0277,-0.0286,-0.0294,-0.0288,-0.0279,-0.0264,-0.0265,-0.0247,-0.0233,-0.0204,-0.0175,-0.0144,-0.0103,-0.0066,-0.0043,-0.0031,-0.0011,-0.0032,-0.0022,0.0015,0.002,0.0024,0.0041,0.0046,-0.0025,-0.0025,-0.0025,0,-0.0285,-0.0297,-0.0295,-0.0294,-0.0289,-0.027,-0.0268,-0.0247,-0.0218,-0.0201,-0.0197,-0.0126,-0.0098,-0.0041,-0.0037,-0.0028,-0.0014,-0.0021,0.0017,0.0021,0.0026,0.0042,0.0048,-0.0025,-0.0025,-0.0025,-0.0025,0,-0.0299,-0.0306,-0.031,-0.0301,-0.0297,-0.0295,-0.0267,-0.0253,-0.0233,-0.0205,-0.0161,-0.0118,-0.0077,-0.0063,-0.0042,0.0003,0.0,0.0008,0.002,0.0031,0.0046,0.0053,-0.0024,-0.0025,-0.0025,-0.0025,0,0,-0.0318,-0.032,-0.0321,-0.0324,-0.0302,-0.0303,-0.0273,-0.0243,-0.0225,-0.0184,-0.0151,-0.0091,-0.0073,-0.0047,-0.0017,0.0022,0.0062,0.0027,0.0029,0.0048,0.0131,0.0118,0.0124,0.0079,0.008,0.0081,0.0127,0,-0.0326,-0.034,-0.0332,-0.0333,-0.0335,-0.031,-0.0292,-0.026,-0.0223,-0.0186,-0.0124,-0.0088,-0.0063,-0.0048,-0.0,0.0049,0.008,0.0048,0.0114,0.0116,0.0108,0.0132,0.0086,0.0132,0.0133,0.0134,0.0135,0,-0.0335,-0.0344,-0.0357,-0.036,-0.036,-0.0354,-0.0329,-0.0307,-0.0239,-0.0214,-0.0151,-0.0107,-0.0031,-0.0027,0.0079,0.0057,0.0088,0.0123,0.0126,0.012,0.0116,0.0121,0.0147,0.0146,0.0145,0.0144,0.0144,0,-0.0354,-0.0361,-0.0378,-0.0377,-0.0371,-0.0371,-0.0364,-0.0316,-0.0303,-0.0228,-0.0207,-0.0109,-0.0061,0.0007,0.0091,0.0082,0.0197,0.0193,0.0209,0.0207,0.0204,0.0199,0.0249,0.0248,0.0248,0.0248,0.0248,0,-0.0361,-0.0374,-0.0394,-0.0399,-0.0422,-0.0407,-0.041,-0.0383,-0.0342,-0.0319,-0.0228,-0.0178,-0.005,0.0036,0.0095,0.0183,0.0202,0.0216,0.0226,0.02,0.0195,0.0208,0.0203,0.025,0.025,0.0249,0.0249,0,-0.0369,-0.0383,-0.0405,-0.042,-0.0431,-0.0446,-0.0458,-0.0454,-0.0411,-0.0375,-0.0356,-0.0219,-0.0092,0.0023,0.015,0.0185,0.0263,0.0279,0.0239,0.0246,0.0241,0.0235,0.0299,0.0299,0.0299,0.0299,0.0299,0,-0.0371,-0.0384,-0.0427,-0.0453,-0.0461,-0.0487,-0.0506,-0.049,-0.0483,-0.0397,-0.0377,-0.0239,-0.0142,0.0048,0.0159,0.0279,0.0283,0.0301,0.0275,0.0246,0.025,0.0244,0.0238,0.03,0.03,0.03,0.03,0,-0.0368,-0.039,-0.0411,-0.0471,-0.0506,-0.0541,-0.0563,-0.0573,-0.054,-0.0501,-0.0379,-0.026,-0.0106,0.0057,0.0159,0.0236,0.0284,0.0302,0.0302,0.0278,0.0248,0.025,0.0244,0.03,0.03,0.03,0.03,0,-0.0365,-0.0388,-0.043,-0.0479,-0.053,-0.0576,-0.0592,-0.0574,-0.0564,-0.0477,-0.0429,-0.0249,-0.0127,0.0034,0.0125,0.0214,0.0218,0.0207,0.0212,0.0213,0.0174,0.0123,0.0153,0,0,0,0,0,-0.0358,-0.0393,-0.0438,-0.0497,-0.0547,-0.0577,-0.0617,-0.0625,-0.0604,-0.0526,-0.048,-0.0334,-0.014,-0.003,0.0057,0.0096,0.0208,0.0192,0.019,0.0302,0.0301,0.027,0,0,0,0,0,0,-0.0364,-0.0404,-0.0434,-0.0499,-0.0537,-0.0593,-0.0622,-0.0614,-0.0568,-0.0517,-0.0394,-0.033,-0.0124,-0.0167,0.0067,0.0095,0.0094,0.0296,0.0296,0.0302,0.0302,0.0301,0.0269,0,0,0,0,0]}]]